Weather in Yangelskiy

Russia / Chelyabinsk Oblast     53°07′32″N   58°59′00″E
temp.,
°C
wind,
m/s
gust,
m/s
humid.,
%
clouds,
%
prec.,
mm/h
press.,
hPa
HPBL,
m
12 may, wed
wed1223:00+15se223588 0.0 102810
02:00+13wnw004110 0.0 102810
05:00+11sw004539 0.0 102910
08:00+16sw113830 0.0 1030174
11:00+21sw212743 0.0 10291244
14:00+24ssw112017 0.0 10281914
17:00+24wsw21195 0.0 10282092
20:00+21wsw33320 0.0 102744
13 may, thu
thu1323:00+17wsw33370 0.0 102838
02:00+15w33450 0.0 102823
05:00+13wnw22490 0.0 102810
08:00+18nw22411 0.0 1029189
11:00+23nw11270 0.0 1028910
14:00+26w11234 0.0 10272198
17:00+26w32225 0.0 10262357
20:00+23wsw34350 0.0 102673
14 may, fri
fri1423:00+19w34384 0.0 102747
02:00+17nnw22451 0.0 102711
05:00+15nw22500 0.0 102811
08:00+19wnw11450 0.0 1028179
11:00+25sw34280 0.0 10281129
14:00+27sw55220 0.0 10272275
17:00+27sw44200 0.0 10262197
20:00+24ssw33310 0.0 102534
15 may, sat
sat1523:00+19wnw33430 0.0 102623
02:00+17wnw22495 0.0 102612
05:00+16wnw115486 0.0 102711
08:00+20w12435 0.0 1027186
11:00+25sw23290 0.0 10261409
14:00+27wsw32220 0.0 10252348
17:00+28w22203 0.0 10242429
20:00+25ssw22304 0.0 102312
16 may, sun
sun1623:00+20w33440 0.0 102335
02:00+18nnw22550 0.0 102326
05:00+17nnw22634 0.0 102411
08:00+21n23485 0.0 1024240
11:00+27w11344 0.0 10231103
14:00+29wsw22265 0.0 10213071
17:00+29w43239 0.0 10203070
20:00+25w35376 0.0 101991